Flag for Italy Weather past 2 weeks in Modena, Italy

Now
70 °F

Fog.


Feels Like: 70 °F
Forecast: 62 / 80 °F
Wind: 5 mph from Northwest

Location: Bologna / Borgo Panigale

Current Time: Sep 20, 2014 at 4:13:39 PM

Latest Report: Sep 20, 2014 at 3:20 PM


Visibility: 2 mi

Pressure: 30.01 "Hg

Humidity: 88%

Dew point: 66 °F

Location of ModenaLocation

Historic Weather in Modena — Graph

°F

Modena temperature yesterday

Maximum temperature yesterday: 70 °F (at 3:20 PM)
Minimum temperature yesterday: 61 °F (at 1:50 AM)
Average temperature yesterday: 66 °F

Past Weeks' High & Low Weather Summary

 TemperatureHumidityPressure
High86 °F (Sep 8, 4:20 PM)100% (Sep 6, 6:20 AM)30.12 "Hg (Sep 6, 6:20 AM)
Low55 °F (Sep 13, 5:50 AM)40% (Sep 8, 4:20 PM)29.80 "Hg (Sep 11, 8:20 AM)
Average69 °F77%29.96 "Hg
* Reported Sep 5 2:20 PM — Sep 20 2:50 PM, Modena, Weather by CustomWeather, © 2014

Note: Actual official high and low records may vary slightly from our data, if they occured in-between our weather recording intervals... More about our weather records

Advertising

Modena weather history for previous 24 hours

 ConditionsComfort  
Time TempWeatherWind HumidityBarometerVisibility
2:50 PM
Sep 20
70 °FFog.3 mph88%30.01 "Hg2 mi
2:20 PM70 °FFog.3 mph88%30.04 "Hg2 mi
1:50 PM70 °FFog.2 mph88%30.04 "Hg2 mi
1:20 PM68 °FFog.3 mph88%30.04 "Hg2 mi
12:50 PM68 °FFog.3 mph88%30.04 "Hg2 mi
12:20 PM70 °FFog.3 mph88%30.04 "Hg2 mi
11:50 AM68 °FFog.2 mph94%30.04 "Hg2 mi
11:20 AM68 °FFog.3 mph88%30.04 "Hg2 mi
10:50 AM66 °FFog.3 mph94%30.04 "Hg1 mi
10:20 AM66 °FFog.5 mph94%30.04 "Hg1 mi
9:50 AM66 °FFog.6 mph94%30.04 "Hg1 mi
9:20 AM66 °FFog.6 mph94%30.01 "Hg1 mi
8:50 AM64 °FFog.5 mph100%30.01 "Hg1 mi
8:20 AM64 °FRain. Fog.1 mph100%30.04 "Hg1 mi
7:50 AM64 °FRain. Fog.7 mph100%30.07 "Hg1 mi
7:20 AM64 °FRain. Fog.8 mph100%30.07 "Hg1 mi
6:50 AM64 °FRain. Fog.6 mph100%30.04 "Hg1 mi
6:20 AM64 °FRain. Fog.8 mph100%30.04 "Hg1 mi
5:50 AM64 °FDrizzle. Fog.7 mph100%30.04 "Hg1 mi
5:20 AM66 °FDrizzle. Fog.5 mph94%30.07 "Hg1 mi
4:50 AM66 °FDrizzle. Fog.9 mph94%30.07 "Hg1 mi
4:20 AM66 °FDrizzle. Fog.5 mph94%30.04 "Hg1 mi
3:50 AM66 °FFog.5 mph94%30.07 "Hg1 mi
3:20 AM66 °FFog.6 mph94%30.07 "Hg1 mi
2:50 AM66 °FFog.6 mph94%30.07 "Hg1 mi
1:50 AM68 °FFog.5 mph88%30.09 "Hg1 mi
1:20 AM68 °FFog.3 mph88%30.07 "Hg1 mi
12:50 AM66 °FFog.3 mph94%30.07 "Hg1 mi
12:20 AM66 °FFog.3 mph94%30.07 "Hg1 mi
11:50 PM
Sep 19
68 °FFog.3 mph88%30.09 "Hg1 mi
11:20 PM66 °FFog.3 mph94%30.09 "Hg1 mi
10:50 PM66 °FFog.2 mph94%30.09 "Hg1 mi
10:20 PM66 °FFog.5 mph94%30.09 "Hg1 mi
9:50 PM66 °FFog.5 mph94%30.09 "Hg2 mi
9:20 PM66 °FFog.1 mph94%30.09 "Hg2 mi
8:50 PM68 °FFog.3 mph88%30.09 "Hg2 mi
8:20 PM68 °FFog.2 mph88%30.07 "Hg1 mi
7:50 PM68 °FFog.2 mph88%30.07 "Hg1 mi
7:20 PM68 °FFog.6 mph88%30.07 "Hg1 mi
6:50 PM68 °FFog.3 mph88%30.07 "Hg1 mi
6:20 PM68 °FFog.6 mph88%30.04 "Hg1 mi
5:50 PM70 °FFog.7 mph88%30.07 "Hg2 mi
5:20 PM70 °FFog.6 mph83%30.04 "Hg2 mi
4:50 PM70 °FFog.6 mph83%30.04 "Hg2 mi
4:20 PM70 °FFog.3 mph83%30.04 "Hg2 mi
Weather by CustomWeather, © 2014

See weather overviewHow to use our weather pages